SP4FDH-13 Weather Reports


time (UTC)temp
C
wind
direction
speed
KPH
gust
KPH
rain 1hr
cm
rain 24hr
cm
rain mn
cm
humidity
%
barometer
mb
20260504151109 28 0.0 0.0 0.00 0.00 0.00 31 1007.1
20260504150133 28 0.0 0.0 0.00 0.00 0.00 29 1007.1
20260504140357 29 0.0 0.0 0.00 0.00 0.00 28 1007.2
20260504130619 30 0.0 0.0 0.00 0.00 0.00 27 1007.5
20260504110128 29 0.0 0.0 0.00 0.00 0.00 26 1007.6
20260504100350 28 0.0 0.0 0.00 0.00 0.00 28 1008.3
20260504081800 26 0.0 0.0 0.00 0.00 0.00 35 1009.2
20260504080823 25 0.0 0.0 0.00 0.00 0.00 36 1009.2
20260504070106 24 0.0 0.0 0.00 0.00 0.00 41 1009.5
20260504050546 18 0.0 0.0 0.00 0.00 0.00 50 1010.0
20260504045610 18 0.0 0.0 0.00 0.00 0.00 50 1009.9
20260504044634 18 0.0 0.0 0.00 0.00 0.00 52 1010.0
20260504043657 17 0.0 0.0 0.00 0.00 0.00 53 1010.1
20260504042720 17 0.0 0.0 0.00 0.00 0.00 56 1010.0
20260504041743 16 0.0 0.0 0.00 0.00 0.00 56 1010.2
20260504040805 16 0.0 0.0 0.00 0.00 0.00 56 1010.0
20260504035827 16 0.0 0.0 0.00 0.00 0.00 56 1010.1
20260504034850 15 0.0 0.0 0.00 0.00 0.00 57 1010.2
20260504033912 15 0.0 0.0 0.00 0.00 0.00 57 1010.2
20260504032935 15 0.0 0.0 0.00 0.00 0.00 55 1010.1
20260504031958 15 0.0 0.0 0.00 0.00 0.00 55 1010.1
20260504031021 15 0.0 0.0 0.00 0.00 0.00 54 1010.1
20260504030044 15 0.0 0.0 0.00 0.00 0.00 54 1010.1
20260504025107 15 0.0 0.0 0.00 0.00 0.00 54 1010.0
20260504024131 15 0.0 0.0 0.00 0.00 0.00 53 1010.1
20260504023154 15 0.0 0.0 0.00 0.00 0.00 53 1010.0
20260504022217 15 0.0 0.0 0.00 0.00 0.00 52 1010.0
20260504021240 16 0.0 0.0 0.00 0.00 0.00 51 1010.0
20260504020303 16 0.0 0.0 0.00 0.00 0.00 49 1010.0
20260504015327 16 0.0 0.0 0.00 0.00 0.00 49 1010.1
20260504014350 16 0.0 0.0 0.00 0.00 0.00 48 1010.1
20260504013413 16 0.0 0.0 0.00 0.00 0.00 47 1010.1
20260504012436 16 0.0 0.0 0.00 0.00 0.00 46 1010.1
20260504011459 16 0.0 0.0 0.00 0.00 0.00 46 1010.1
20260504010522 16 0.0 0.0 0.00 0.00 0.00 45 1010.1
20260504005545 16 0.0 0.0 0.00 0.00 0.00 45 1010.1
20260504004609 16 0.0 0.0 0.00 0.00 0.00 45 1010.1
20260504003632 16 0.0 0.0 0.00 0.00 0.00 44 1010.2
20260504002655 16 0.0 0.0 0.00 0.00 0.00 44 1010.1
20260504001718 16 0.0 0.0 0.00 0.00 0.00 44 1010.2
20260504000742 16 0.0 0.0 0.00 0.00 0.00 43 1010.2
20260503235805 16 0.0 0.0 0.00 0.00 0.00 43 1010.1
20260503234828 16 0.0 0.0 0.00 0.00 0.00 43 1010.1
20260503233851 16 0.0 0.0 0.00 0.00 0.00 42 1010.2
20260503232914 16 0.0 0.0 0.00 0.00 0.00 42 1010.1
20260503231938 16 0.0 0.0 0.00 0.00 0.00 43 1010.3
20260503231001 17 0.0 0.0 0.00 0.00 0.00 42 1010.2
20260503230024 17 0.0 0.0 0.00 0.00 0.00 41 1010.3
20260503225048 17 0.0 0.0 0.00 0.00 0.00 41 1010.2
20260503224111 17 0.0 0.0 0.00 0.00 0.00 40 1010.2
20260503223135 17 0.0 0.0 0.00 0.00 0.00 40 1010.1
20260503222158 17 0.0 0.0 0.00 0.00 0.00 39 1010.1
20260503221222 18 0.0 0.0 0.00 0.00 0.00 39 1010.1
20260503220245 18 0.0 0.0 0.00 0.00 0.00 38 1010.2
20260503215309 18 0.0 0.0 0.00 0.00 0.00 38 1010.2
20260503214332 18 0.0 0.0 0.00 0.00 0.00 38 1010.0
20260503213355 18 0.0 0.0 0.00 0.00 0.00 39 1010.1
20260503212418 18 0.0 0.0 0.00 0.00 0.00 38 1010.1
20260503210504 18 0.0 0.0 0.00 0.00 0.00 40 1010.2
20260503205527 18 0.0 0.0 0.00 0.00 0.00 39 1010.2
20260503204551 18 0.0 0.0 0.00 0.00 0.00 41 1010.4
20260503203615 18 0.0 0.0 0.00 0.00 0.00 40 1010.3
20260503202638 18 0.0 0.0 0.00 0.00 0.00 40 1010.3
20260503201701 18 0.0 0.0 0.00 0.00 0.00 40 1010.4
20260503200725 18 0.0 0.0 0.00 0.00 0.00 39 1010.3
20260503195748 18 0.0 0.0 0.00 0.00 0.00 39 1010.4
20260503194811 18 0.0 0.0 0.00 0.00 0.00 38 1010.3
20260503193835 19 0.0 0.0 0.00 0.00 0.00 38 1010.4
20260503192859 19 0.0 0.0 0.00 0.00 0.00 38 1010.4
20260503191922 19 0.0 0.0 0.00 0.00 0.00 38 1010.4
20260503190947 20 0.0 0.0 0.00 0.00 0.00 39 1010.4
20260503190011 20 0.0 0.0 0.00 0.00 0.00 37 1010.3
20260503185035 20 0.0 0.0 0.00 0.00 0.00 35 1010.1
20260503184100 21 0.0 0.0 0.00 0.00 0.00 35 1010.0
20260503183124 21 0.0 0.0 0.00 0.00 0.00 33 1009.8
20260503182148 22 0.0 0.0 0.00 0.00 0.00 31 1009.7
20260503181213 23 0.0 0.0 0.00 0.00 0.00 29 1009.5
20260503180238 24 0.0 0.0 0.00 0.00 0.00 27 1009.2
20260503175304 25 0.0 0.0 0.00 0.00 0.00 26 1009.2
20260503174326 25 0.0 0.0 0.00 0.00 0.00 24 1009.1
20260503173350 26 0.0 0.0 0.00 0.00 0.00 24 1008.9
20260503172414 26 0.0 0.0 0.00 0.00 0.00 23 1008.9
20260503171437 26 0.0 0.0 0.00 0.00 0.00 22 1008.7
20260503170501 26 0.0 0.0 0.00 0.00 0.00 21 1008.8